,,Stat6,,Stat2,,Stat8,,Stat9,,Stat10,,Wind1,,Wind1,
time,status,PA1M_AVG,status,PR1M_SUM,status,RH1M_AVG,status,SR1M_AVG,status,TA1M_AVG,status,W1dAve1m,status,W1sAve1m,
2008-03-19, 00:00:00,VALID,916.381,VALID,0,VALID,100,VALID,0.0169808,VALID,19.3739,VALID,196,VALID,0.124578,
2008-03-19, 00:01:00,VALID,916.374,VALID,0,VALID,100,VALID,-0.0169808,VALID,19.3776,VALID,188,VALID,0.147294,
2008-03-19, 00:02:00,VALID,916.367,VALID,0,VALID,100,VALID,0.0339617,VALID,19.3637,VALID,210,VALID,0.190625,
2008-03-19, 00:03:00,VALID,916.358,VALID,0,VALID,100,VALID,0.0169808,VALID,19.3771,VALID,228,VALID,0,
2008-03-19, 00:04:00,VALID,916.363,VALID,0,VALID,100,VALID,0.0339617,VALID,19.3779,VALID,238,VALID,0,
2008-03-19, 00:05:00,VALID,916.357,VALID,0,VALID,100,VALID,0,VALID,19.3701,VALID,237,VALID,0,
2008-03-19, 00:06:00,VALID,916.358,VALID,0,VALID,100,VALID,0.0339617,VALID,19.3968,VALID,237,VALID,0,
2008-03-19, 00:07:00,VALID,916.346,VALID,0,VALID,100,VALID,0.0339617,VALID,19.4063,VALID,237,VALID,0,
2008-03-19, 00:08:00,VALID,916.333,VALID,0,VALID,100,VALID,0.0339617,VALID,19.4191,VALID,237,VALID,0,
2008-03-19, 00:09:00,VALID,916.319,VALID,0,VALID,100,VALID,0,VALID,19.4253,VALID,237,VALID,0,
2008-03-19, 00:10:00,VALID,916.313,VALID,0,VALID,100,VALID,0.0339617,VALID,19.4026,VALID,239,VALID,0,
2008-03-19, 00:11:00,VALID,916.301,VALID,0,VALID,100,VALID,0,VALID,19.3996,VALID,268,VALID,0,
2008-03-19, 00:12:00,VALID,916.276,VALID,0,VALID,100,VALID,0.0679233,VALID,19.3896,VALID,277,VALID,0,
2008-03-19, 00:13:00,VALID,916.263,VALID,0,VALID,100,VALID,0.0849042,VALID,19.3829,VALID,277,VALID,0,
2008-03-19, 00:14:00,VALID,916.244,VALID,0,VALID,100,VALID,0.0509425,VALID,19.3929,VALID,277,VALID,0,
2008-03-19, 00:15:00,VALID,916.23,VALID,0,VALID,100,VALID,0.0339617,VALID,19.3864,VALID,270,VALID,0,
2008-03-19, 00:16:00,VALID,916.209,VALID,0,VALID,100,VALID,0,VALID,19.3936,VALID,257,VALID,0,
2008-03-19, 00:17:00,VALID,916.193,VALID,0,VALID,100,VALID,0,VALID,19.3839,VALID,257,VALID,0,
2008-03-19, 00:18:00,VALID,916.175,VALID,0,VALID,100,VALID,-0.0169808,VALID,19.3774,VALID,257,VALID,0,
2008-03-19, 00:19:00,VALID,916.166,VALID,0,VALID,100,VALID,-0.101885,VALID,19.3916,VALID,257,VALID,0,
2008-03-19, 00:20:00,VALID,916.168,VALID,0,VALID,100,VALID,-0.101885,VALID,19.3918,VALID,257,VALID,0,
2008-03-19, 00:21:00,VALID,916.145,VALID,0,VALID,100,VALID,-0.0849042,VALID,19.3818,VALID,257,VALID,0,
2008-03-19, 00:22:00,VALID,916.128,VALID,0,VALID,100,VALID,-0.101885,VALID,19.3556,VALID,257,VALID,0,
2008-03-19, 00:23:00,VALID,916.117,VALID,0,VALID,100,VALID,-0.0679233,VALID,19.3397,VALID,257,VALID,0,
2008-03-19, 00:24:00,VALID,916.105,VALID,0,VALID,100,VALID,-0.0679233,VALID,19.3165,VALID,257,VALID,0,
2008-03-19, 00:25:00,VALID,916.094,VALID,0,VALID,100,VALID,-0.0679233,VALID,19.3067,VALID,257,VALID,0,
2008-03-19, 00:26:00,VALID,916.084,VALID,0,VALID,100,VALID,-0.0679233,VALID,19.3072,VALID,257,VALID,0,
2008-03-19, 00:27:00,VALID,916.079,VALID,0,VALID,100,VALID,-0.101885,VALID,19.2975,VALID,257,VALID,0,
2008-03-19, 00:28:00,VALID,916.069,VALID,0,VALID,100,VALID,-0.0849042,VALID,19.3002,VALID,257,VALID,0,
2008-03-19, 00:29:00,VALID,916.048,VALID,0,VALID,100,VALID,-0.0849042,VALID,19.297,VALID,257,VALID,0,
2008-03-19, 00:30:00,VALID,916.037,VALID,0,VALID,100,VALID,-0.0849042,VALID,19.3005,VALID,257,VALID,0,
2008-03-19, 00:31:00,VALID,916.037,VALID,0,VALID,100,VALID,-0.101885,VALID,19.2908,VALID,257,VALID,0,
2008-03-19, 00:32:00,VALID,916.032,VALID,0,VALID,100,VALID,-0.0849042,VALID,19.2843,VALID,257,VALID,0,
2008-03-19, 00:33:00,VALID,916.04,VALID,0,VALID,100,VALID,-0.0679233,VALID,19.2838,VALID,257,VALID,0,
2008-03-19, 00:34:00,VALID,916.032,VALID,0,VALID,100,VALID,0.0509425,VALID,19.3053,VALID,332,VALID,0,
2008-03-19, 00:35:00,VALID,916.029,VALID,0,VALID,100,VALID,0.0849042,VALID,19.3083,VALID,18,VALID,0,
2008-03-19, 00:36:00,VALID,916.011,VALID,0,VALID,100,VALID,0.0679233,VALID,19.3088,VALID,18,VALID,0,
2008-03-19, 00:37:00,VALID,916.013,VALID,0,VALID,100,VALID,0.0169808,VALID,19.325,VALID,18,VALID,0,
2008-03-19, 00:38:00,VALID,915.991,VALID,0,VALID,100,VALID,0.0339617,VALID,19.3384,VALID,18,VALID,0,
2008-03-19, 00:39:00,VALID,915.97,VALID,0,VALID,100,VALID,0,VALID,19.322,VALID,18,VALID,0,
2008-03-19, 00:40:00,VALID,915.954,VALID,0,VALID,100,VALID,0,VALID,19.322,VALID,18,VALID,0,
2008-03-19, 00:41:00,VALID,915.934,VALID,0,VALID,100,VALID,0,VALID,19.322,VALID,18,VALID,0,
2008-03-19, 00:42:00,VALID,915.912,VALID,0,VALID,100,VALID,0.0509425,VALID,19.3185,VALID,18,VALID,0,
2008-03-19, 00:43:00,VALID,915.894,VALID,0,VALID,100,VALID,0.0169808,VALID,19.328,VALID,18,VALID,0,
2008-03-19, 00:44:00,VALID,915.867,VALID,0,VALID,100,VALID,0.0849042,VALID,19.3412,VALID,18,VALID,0,
2008-03-19, 00:45:00,VALID,915.859,VALID,0,VALID,100,VALID,0.0339617,VALID,19.3444,VALID,18,VALID,0,
2008-03-19, 00:46:00,VALID,915.854,VALID,0,VALID,100,VALID,0,VALID,19.3642,VALID,18,VALID,0,
2008-03-19, 00:47:00,VALID,915.846,VALID,0,VALID,100,VALID,0.0169808,VALID,19.3861,VALID,18,VALID,0,
2008-03-19, 00:48:00,VALID,915.842,VALID,0.2,VALID,100,VALID,0.0169808,VALID,19.3938,VALID,18,VALID,0,
2008-03-19, 00:49:00,VALID,915.819,VALID,0,VALID,100,VALID,-0.0679233,VALID,19.3749,VALID,17,VALID,0,
2008-03-19, 00:50:00,VALID,915.827,VALID,0,VALID,100,VALID,-0.0509425,VALID,19.3651,VALID,16,VALID,0,
2008-03-19, 00:51:00,VALID,915.797,VALID,0,VALID,100,VALID,-0.0679233,VALID,19.3457,VALID,19,VALID,0,
2008-03-19, 00:52:00,VALID,915.783,VALID,0,VALID,100,VALID,-0.0849042,VALID,19.3591,VALID,19,VALID,0,
2008-03-19, 00:53:00,VALID,915.767,VALID,0,VALID,100,VALID,-0.101885,VALID,19.3754,VALID,19,VALID,0,
2008-03-19, 00:54:00,VALID,915.769,VALID,0,VALID,100,VALID,-0.0849042,VALID,19.3851,VALID,19,VALID,0,
2008-03-19, 00:55:00,VALID,915.749,VALID,0,VALID,100,VALID,-0.0509425,VALID,19.3981,VALID,18,VALID,0.339939,
2008-03-19, 00:56:00,VALID,915.716,VALID,0,VALID,100,VALID,-0.0849042,VALID,19.4046,VALID,17,VALID,0.299293,
2008-03-19, 00:57:00,VALID,915.701,VALID,0,VALID,100,VALID,-0.101885,VALID,19.4138,VALID,17,VALID,0,
2008-03-19, 00:58:00,VALID,915.694,VALID,0,VALID,100,VALID,-0.0679233,VALID,19.4268,VALID,17,VALID,0.000363372,
2008-03-19, 00:59:00,VALID,915.672,VALID,0,VALID,100,VALID,-0.0849042,VALID,19.4397,VALID,17,VALID,0.137277,
2008-03-19, 01:00:00,VALID,915.655,VALID,0,VALID,100,VALID,-0.0849042,VALID,19.4268,VALID,17,VALID,0,
2008-03-19, 01:01:00,VALID,915.654,VALID,0,VALID,100,VALID,-0.101885,VALID,19.4118,VALID,17,VALID,0,
2008-03-19, 01:02:00,VALID,915.63,VALID,0,VALID,100,VALID,-0.0679233,VALID,19.4303,VALID,17,VALID,0,
2008-03-19, 01:03:00,VALID,915.63,VALID,0,VALID,100,VALID,0.0169808,VALID,19.4423,VALID,17,VALID,0,
2008-03-19, 01:04:00,VALID,915.631,VALID,0,VALID,100,VALID,0.0509425,VALID,19.4513,VALID,17,VALID,0,
2008-03-19, 01:05:00,VALID,915.622,VALID,0,VALID,100,VALID,0.0679233,VALID,19.4448,VALID,17,VALID,0,
2008-03-19, 01:06:00,VALID,915.626,VALID,0,VALID,100,VALID,0.0169808,VALID,19.4383,VALID,17,VALID,0,
2008-03-19, 01:07:00,VALID,915.61,VALID,0,VALID,100,VALID,0.0849042,VALID,19.4345,VALID,17,VALID,0,
2008-03-19, 01:08:00,VALID,915.582,VALID,0,VALID,100,VALID,0.0679233,VALID,19.4445,VALID,17,VALID,0,
2008-03-19, 01:09:00,VALID,915.595,VALID,0,VALID,100,VALID,0.0679233,VALID,19.4445,VALID,17,VALID,0,
2008-03-19, 01:10:00,VALID,915.595,VALID,0,VALID,100,VALID,0.0679233,VALID,19.448,VALID,17,VALID,0,
2008-03-19, 01:11:00,VALID,915.583,VALID,0,VALID,100,VALID,0.0509425,VALID,19.448,VALID,17,VALID,0,
2008-03-19, 01:12:00,VALID,915.578,VALID,0,VALID,100,VALID,0.0679233,VALID,19.458,VALID,17,VALID,0,
2008-03-19, 01:13:00,VALID,915.557,VALID,0,VALID,100,VALID,0.0679233,VALID,19.448,VALID,17,VALID,0,
2008-03-19, 01:14:00,VALID,915.556,VALID,0,VALID,100,VALID,0.0849042,VALID,19.4315,VALID,17,VALID,0,
2008-03-19, 01:15:00,VALID,915.533,VALID,0.2,VALID,100,VALID,0.0509425,VALID,19.4223,VALID,17,VALID,0,
2008-03-19, 01:16:00,VALID,915.512,VALID,0,VALID,100,VALID,0.0509425,VALID,19.4091,VALID,17,VALID,0,
2008-03-19, 01:17:00,VALID,915.495,VALID,0,VALID,100,VALID,0.0169808,VALID,19.3929,VALID,17,VALID,0,
2008-03-19, 01:18:00,VALID,915.494,VALID,0,VALID,100,VALID,0.0169808,VALID,19.3639,VALID,17,VALID,0,
2008-03-19, 01:19:00,VALID,915.473,VALID,0,VALID,100,VALID,-0.0679233,VALID,19.3749,VALID,17,VALID,0,
2008-03-19, 01:20:00,VALID,915.462,VALID,0,VALID,100,VALID,-0.0339617,VALID,19.4108,VALID,17,VALID,0,
2008-03-19, 01:21:00,VALID,915.464,VALID,0,VALID,100,VALID,-0.0509425,VALID,19.43,VALID,17,VALID,0,
2008-03-19, 01:22:00,VALID,915.457,VALID,0,VALID,100,VALID,-0.0509425,VALID,19.4233,VALID,17,VALID,0,
2008-03-19, 01:23:00,VALID,915.454,VALID,0,VALID,100,VALID,-0.0339617,VALID,19.4397,VALID,17,VALID,0,
2008-03-19, 01:24:00,VALID,915.439,VALID,0,VALID,100,VALID,-0.0169808,VALID,19.4298,VALID,17,VALID,0,
2008-03-19, 01:25:00,VALID,915.438,VALID,0,VALID,100,VALID,-0.0509425,VALID,19.423,VALID,17,VALID,0,
2008-03-19, 01:26:00,VALID,915.423,VALID,0,VALID,100,VALID,-0.0509425,VALID,19.4268,VALID,17,VALID,0,
2008-03-19, 01:27:00,VALID,915.396,VALID,0,VALID,100,VALID,-0.0509425,VALID,19.4203,VALID,17,VALID,0,
2008-03-19, 01:28:00,VALID,915.378,VALID,0,VALID,100,VALID,-0.0679233,VALID,19.4203,VALID,17,VALID,0,
2008-03-19, 01:29:00,VALID,915.354,VALID,0,VALID,100,VALID,-0.0679233,VALID,19.3943,VALID,17,VALID,0,
2008-03-19, 01:30:00,VALID,915.338,VALID,0,VALID,100,VALID,-0.0849042,VALID,19.3749,VALID,17,VALID,0,
2008-03-19, 01:31:00,VALID,915.341,VALID,0,VALID,100,VALID,-0.0339617,VALID,19.3719,VALID,17,VALID,0,
2008-03-19, 01:32:00,VALID,915.328,VALID,0.2,VALID,100,VALID,-0.0339617,VALID,19.3848,VALID,17,VALID,0,
2008-03-19, 01:33:00,VALID,915.322,VALID,0,VALID,100,VALID,-0.0339617,VALID,19.3876,VALID,17,VALID,0,
2008-03-19, 01:34:00,VALID,915.307,VALID,0,VALID,100,VALID,0,VALID,19.3841,VALID,17,VALID,0,
2008-03-19, 01:35:00,VALID,915.307,VALID,0,VALID,100,VALID,-0.0509425,VALID,19.3911,VALID,17,VALID,0,
2008-03-19, 01:36:00,VALID,915.29,VALID,0,VALID,100,VALID,-0.0679233,VALID,19.4068,VALID,17,VALID,0,
2008-03-19, 01:37:00,VALID,915.285,VALID,0,VALID,100,VALID,-0.0339617,VALID,19.42,VALID,17,VALID,0,
2008-03-19, 01:38:00,VALID,915.274,VALID,0,VALID,100,VALID,-0.0169808,VALID,19.423,VALID,17,VALID,0,
2008-03-19, 01:39:00,VALID,915.256,VALID,0,VALID,100,VALID,-0.0169808,VALID,19.4263,VALID,17,VALID,0,
2008-03-19, 01:40:00,VALID,915.237,VALID,0,VALID,100,VALID,-0.0679233,VALID,19.4268,VALID,17,VALID,0,
2008-03-19, 01:41:00,VALID,915.214,VALID,0,VALID,100,VALID,-0.0849042,VALID,19.4101,VALID,17,VALID,0,
2008-03-19, 01:42:00,VALID,915.202,VALID,0,VALID,100,VALID,-0.0509425,VALID,19.4038,VALID,17,VALID,0,
2008-03-19, 01:43:00,VALID,915.188,VALID,0,VALID,100,VALID,-0.0339617,VALID,19.4073,VALID,17,VALID,0,
2008-03-19, 01:44:00,VALID,915.164,VALID,0,VALID,100,VALID,-0.0339617,VALID,19.3714,VALID,17,VALID,0,
2008-03-19, 01:45:00,VALID,915.154,VALID,0,VALID,100,VALID,-0.0169808,VALID,19.3619,VALID,17,VALID,0,
2008-03-19, 01:46:00,VALID,915.141,VALID,0,VALID,100,VALID,-0.0509425,VALID,19.3584,VALID,17,VALID,0,
2008-03-19, 01:47:00,VALID,915.116,VALID,0,VALID,100,VALID,-0.0169808,VALID,19.3392,VALID,17,VALID,0,
2008-03-19, 01:48:00,VALID,915.094,VALID,0,VALID,100,VALID,-0.0169808,VALID,19.3424,VALID,17,VALID,0,
2008-03-19, 01:49:00,VALID,915.103,VALID,0,VALID,100,VALID,-0.0509425,VALID,19.3324,VALID,17,VALID,0,
2008-03-19, 01:50:00,VALID,915.095,VALID,0,VALID,100,VALID,-0.0509425,VALID,19.3292,VALID,17,VALID,0,
2008-03-19, 01:51:00,VALID,915.086,VALID,0,VALID,100,VALID,-0.0849042,VALID,19.3292,VALID,17,VALID,0,
2008-03-19, 01:52:00,VALID,915.082,VALID,0,VALID,100,VALID,-0.0849042,VALID,19.3165,VALID,17,VALID,0,
2008-03-19, 01:53:00,VALID,915.063,VALID,0,VALID,100,VALID,-0.0339617,VALID,19.2968,VALID,17,VALID,0,
2008-03-19, 01:54:00,VALID,915.061,VALID,0,VALID,100,VALID,-0.0339617,VALID,19.2905,VALID,17,VALID,0,
2008-03-19, 01:55:00,VALID,915.04,VALID,0,VALID,100,VALID,-0.0509425,VALID,19.2708,VALID,17,VALID,0,
2008-03-19, 01:56:00,VALID,915.031,VALID,0,VALID,100,VALID,-0.0339617,VALID,19.2611,VALID,17,VALID,0,
2008-03-19, 01:57:00,VALID,915.03,VALID,0,VALID,100,VALID,-0.0339617,VALID,19.2479,VALID,17,VALID,0,
2008-03-19, 01:58:00,VALID,915.01,VALID,0,VALID,100,VALID,-0.0509425,VALID,19.2516,VALID,17,VALID,0,
2008-03-19, 01:59:00,VALID,914.992,VALID,0,VALID,100,VALID,-0.0509425,VALID,19.2611,VALID,17,VALID,0,
2008-03-19, 02:00:00,VALID,914.964,VALID,0,VALID,100,VALID,-0.0849042,VALID,19.2608,VALID,17,VALID,0,
2008-03-19, 02:01:00,VALID,914.947,VALID,0,VALID,100,VALID,-0.0679233,VALID,19.2676,VALID,17,VALID,0,
2008-03-19, 02:02:00,VALID,914.939,VALID,0,VALID,100,VALID,-0.0679233,VALID,19.2743,VALID,17,VALID,0,
2008-03-19, 02:03:00,VALID,914.923,VALID,0,VALID,100,VALID,-0.0509425,VALID,19.2611,VALID,17,VALID,0,
2008-03-19, 02:04:00,VALID,914.897,VALID,0,VALID,100,VALID,0,VALID,19.2543,VALID,17,VALID,0,
2008-03-19, 02:05:00,VALID,914.891,VALID,0,VALID,100,VALID,-0.0339617,VALID,19.2446,VALID,17,VALID,0,
2008-03-19, 02:06:00,VALID,914.87,VALID,0,VALID,100,VALID,-0.0169808,VALID,19.2476,VALID,17,VALID,0,
2008-03-19, 02:07:00,VALID,914.855,VALID,0,VALID,100,VALID,0,VALID,19.2511,VALID,17,VALID,0,
2008-03-19, 02:08:00,VALID,914.845,VALID,0,VALID,100,VALID,-0.0169808,VALID,19.2641,VALID,17,VALID,0,
2008-03-19, 02:09:00,VALID,914.831,VALID,0.2,VALID,100,VALID,0,VALID,19.2736,VALID,17,VALID,0,
2008-03-19, 02:10:00,VALID,914.829,VALID,0,VALID,100,VALID,0,VALID,19.3,VALID,19,VALID,0.0925781,
2008-03-19, 02:11:00,VALID,914.807,VALID,0,VALID,100,VALID,-0.0339617,VALID,19.2995,VALID,19,VALID,0,
2008-03-19, 02:12:00,VALID,914.812,VALID,0,VALID,100,VALID,-0.0339617,VALID,19.3127,VALID,20,VALID,0,
2008-03-19, 02:13:00,VALID,914.804,VALID,0,VALID,100,VALID,-0.0679233,VALID,19.3195,VALID,24,VALID,0,
2008-03-19, 02:14:00,VALID,914.807,VALID,0,VALID,100,VALID,-0.0509425,VALID,19.3354,VALID,24,VALID,0,
2008-03-19, 02:15:00,VALID,914.8,VALID,0,VALID,100,VALID,0,VALID,19.3387,VALID,24,VALID,0,
2008-03-19, 02:16:00,VALID,914.818,VALID,0,VALID,100,VALID,-0.0339617,VALID,19.3489,VALID,24,VALID,0,
2008-03-19, 02:17:00,VALID,914.82,VALID,0,VALID,100,VALID,-0.0679233,VALID,19.3324,VALID,24,VALID,0,
2008-03-19, 02:18:00,VALID,914.824,VALID,0,VALID,100,VALID,0,VALID,19.3257,VALID,24,VALID,0,
2008-03-19, 02:19:00,VALID,914.827,VALID,0,VALID,100,VALID,-0.0169808,VALID,19.332,VALID,24,VALID,0,
2008-03-19, 02:20:00,VALID,914.839,VALID,0,VALID,100,VALID,-0.0509425,VALID,19.3419,VALID,24,VALID,0,
2008-03-19, 02:21:00,VALID,914.832,VALID,0,VALID,100,VALID,-0.0339617,VALID,19.3389,VALID,24,VALID,0,
2008-03-19, 02:22:00,VALID,914.825,VALID,0,VALID,100,VALID,-0.0339617,VALID,19.3354,VALID,24,VALID,0,
2008-03-19, 02:23:00,VALID,914.833,VALID,0,VALID,100,VALID,-0.0339617,VALID,19.3257,VALID,24,VALID,0,
2008-03-19, 02:24:00,VALID,914.841,VALID,0,VALID,100,VALID,-0.0169808,VALID,19.313,VALID,24,VALID,0,
2008-03-19, 02:25:00,VALID,914.832,VALID,0,VALID,100,VALID,-0.0169808,VALID,19.3025,VALID,24,VALID,0,
2008-03-19, 02:26:00,VALID,914.827,VALID,0,VALID,100,VALID,-0.0169808,VALID,19.3095,VALID,24,VALID,0,
2008-03-19, 02:27:00,VALID,914.822,VALID,0,VALID,100,VALID,-0.0339617,VALID,19.3157,VALID,24,VALID,0,
2008-03-19, 02:28:00,VALID,914.804,VALID,0,VALID,100,VALID,-0.0509425,VALID,19.3122,VALID,24,VALID,0,
2008-03-19, 02:29:00,VALID,914.797,VALID,0,VALID,100,VALID,-0.0339617,VALID,19.3127,VALID,24,VALID,0,
2008-03-19, 02:30:00,VALID,914.785,VALID,0,VALID,100,VALID,-0.0509425,VALID,19.3195,VALID,24,VALID,0,
2008-03-19, 02:31:00,VALID,914.78,VALID,0,VALID,100,VALID,0,VALID,19.3092,VALID,24,VALID,0,
2008-03-19, 02:32:00,VALID,914.784,VALID,0,VALID,100,VALID,-0.0169808,VALID,19.329,VALID,24,VALID,0,
2008-03-19, 02:33:00,VALID,914.783,VALID,0,VALID,100,VALID,0,VALID,19.326,VALID,24,VALID,0,
2008-03-19, 02:34:00,VALID,914.791,VALID,0,VALID,100,VALID,-0.0169808,VALID,19.319,VALID,24,VALID,0,
2008-03-19, 02:35:00,VALID,914.779,VALID,0,VALID,100,VALID,-0.0169808,VALID,19.3387,VALID,24,VALID,0,
2008-03-19, 02:36:00,VALID,914.784,VALID,0,VALID,100,VALID,0,VALID,19.3352,VALID,24,VALID,0,
2008-03-19, 02:37:00,VALID,914.77,VALID,0,VALID,100,VALID,0,VALID,19.3287,VALID,24,VALID,0,
2008-03-19, 02:38:00,VALID,914.764,VALID,0,VALID,100,VALID,0.0169808,VALID,19.3352,VALID,24,VALID,0,
2008-03-19, 02:39:01,VALID,914.747,VALID,0,VALID,100,VALID,0,VALID,19.3447,VALID,24,VALID,0,
2008-03-19, 02:40:00,VALID,914.748,VALID,0,VALID,100,VALID,0,VALID,19.3547,VALID,24,VALID,0,
2008-03-19, 02:41:00,VALID,914.757,VALID,0,VALID,100,VALID,0,VALID,19.3449,VALID,24,VALID,0,
2008-03-19, 02:42:00,VALID,914.752,VALID,0,VALID,100,VALID,0,VALID,19.3322,VALID,24,VALID,0,
2008-03-19, 02:43:00,VALID,914.753,VALID,0,VALID,100,VALID,0,VALID,19.3055,VALID,28,VALID,0,
2008-03-19, 02:44:00,VALID,914.749,VALID,0,VALID,100,VALID,-0.0169808,VALID,19.2573,VALID,40,VALID,0,
2008-03-19, 02:45:00,VALID,914.747,VALID,0,VALID,100,VALID,-0.0169808,VALID,19.2673,VALID,40,VALID,0,
2008-03-19, 02:46:00,VALID,914.751,VALID,0,VALID,100,VALID,-0.0169808,VALID,19.2703,VALID,40,VALID,0,
2008-03-19, 02:47:00,VALID,914.758,VALID,0,VALID,100,VALID,-0.0169808,VALID,19.2963,VALID,40,VALID,0,
2008-03-19, 02:48:00,VALID,914.753,VALID,0,VALID,100,VALID,-0.0169808,VALID,19.2968,VALID,39,VALID,0,
2008-03-19, 02:49:01,VALID,914.772,VALID,0,VALID,100,VALID,-0.0169808,VALID,19.2963,VALID,39,VALID,0,
2008-03-19, 02:50:00,VALID,914.755,VALID,0,VALID,100,VALID,-0.0169808,VALID,19.3035,VALID,39,VALID,0,
2008-03-19, 02:51:00,VALID,914.755,VALID,0,VALID,100,VALID,-0.0169808,VALID,19.296,VALID,40,VALID,0.179142,
2008-03-19, 02:52:01,VALID,914.753,VALID,0,VALID,100,VALID,-0.0339617,VALID,19.2963,VALID,23,VALID,0.128239,
2008-03-19, 02:53:00,VALID,914.736,VALID,0,VALID,100,VALID,-0.0169808,VALID,19.2958,VALID,17,VALID,0.411337,
2008-03-19, 02:54:01,VALID,914.725,VALID,0,VALID,100,VALID,-0.0339617,VALID,19.303,VALID,26,VALID,0.362233,
2008-03-19, 02:55:01,VALID,914.718,VALID,0,VALID,100,VALID,-0.0509425,VALID,19.293,VALID,24,VALID,0.896763,
2008-03-19, 02:56:00,VALID,914.719,VALID,0,VALID,100,VALID,0,VALID,19.2905,VALID,44,VALID,0.702762,
2008-03-19, 02:57:00,VALID,914.724,VALID,0,VALID,100,VALID,0,VALID,19.283,VALID,35,VALID,0.562119,
2008-03-19, 02:58:00,VALID,914.714,VALID,0,VALID,100,VALID,-0.0339617,VALID,19.287,VALID,26,VALID,0.748047,
2008-03-19, 02:59:01,VALID,914.725,VALID,0,VALID,100,VALID,-0.0169808,VALID,19.2743,VALID,22,VALID,1.49077,
2008-03-19, 03:00:00,VALID,914.724,VALID,0,VALID,100,VALID,0,VALID,19.2406,VALID,8,VALID,1.25837,
2008-03-19, 03:01:01,VALID,914.733,VALID,0,VALID,100,VALID,0,VALID,19.2147,VALID,21,VALID,0.814062,
2008-03-19, 03:02:01,VALID,914.743,VALID,0,VALID,100,VALID,0,VALID,19.2152,VALID,6,VALID,0.760719,
2008-03-19, 03:03:00,VALID,914.74,VALID,0,VALID,100,VALID,-0.0339617,VALID,19.1925,VALID,351,VALID,1.2037,
2008-03-19, 03:04:01,VALID,914.745,VALID,0,VALID,100,VALID,-0.0169808,VALID,19.1957,VALID,13,VALID,0.889863,
2008-03-19, 03:05:00,VALID,914.738,VALID,0,VALID,100,VALID,-0.0169808,VALID,19.2087,VALID,25,VALID,0.938834,
2008-03-19, 03:06:00,VALID,914.742,VALID,0,VALID,100,VALID,0,VALID,19.2182,VALID,10,VALID,0.66806,
2008-03-19, 03:07:01,VALID,914.716,VALID,0,VALID,100,VALID,-0.0169808,VALID,19.2082,VALID,11,VALID,0.840039,
2008-03-19, 03:08:00,VALID,914.705,VALID,0,VALID,100,VALID,0.0169808,VALID,19.1985,VALID,5,VALID,0.392299,
2008-03-19, 03:09:01,VALID,914.703,VALID,0,VALID,100,VALID,-0.0169808,VALID,19.1862,VALID,353,VALID,0,
2008-03-19, 03:10:01,VALID,914.698,VALID,0,VALID,100,VALID,-0.0169808,VALID,19.1957,VALID,13,VALID,0.518169,
2008-03-19, 03:11:01,VALID,914.691,VALID,0,VALID,100,VALID,-0.0169808,VALID,19.2084,VALID,24,VALID,1.29818,
2008-03-19, 03:12:00,VALID,914.674,VALID,0,VALID,100,VALID,-0.0679233,VALID,19.2221,VALID,23,VALID,1.3856,
2008-03-19, 03:13:01,VALID,914.674,VALID,0,VALID,100,VALID,-0.0169808,VALID,19.2284,VALID,24,VALID,1.09066,
2008-03-19, 03:14:00,VALID,914.684,VALID,0,VALID,100,VALID,-0.0339617,VALID,19.2513,VALID,22,VALID,0.96892,
2008-03-19, 03:15:00,VALID,914.683,VALID,0,VALID,100,VALID,-0.0169808,VALID,19.274,VALID,37,VALID,0.645117,
2008-03-19, 03:16:00,VALID,914.684,VALID,0,VALID,100,VALID,-0.0169808,VALID,19.2673,VALID,33,VALID,0.113653,
2008-03-19, 03:17:01,VALID,914.68,VALID,0,VALID,100,VALID,-0.0169808,VALID,19.2668,VALID,18,VALID,0.85556,
2008-03-19, 03:18:00,VALID,914.676,VALID,0,VALID,100,VALID,0,VALID,19.2541,VALID,28,VALID,0.583008,
2008-03-19, 03:19:01,VALID,914.681,VALID,0,VALID,100,VALID,0,VALID,19.2114,VALID,11,VALID,0.809261,
2008-03-19, 03:20:01,VALID,914.676,VALID,0,VALID,100,VALID,0,VALID,19.1959,VALID,23,VALID,1.20853,
2008-03-19, 03:21:01,VALID,914.661,VALID,0,VALID,100,VALID,0.0339617,VALID,19.1568,VALID,351,VALID,1.08194,
2008-03-19, 03:22:00,VALID,914.669,VALID,0,VALID,100,VALID,0.0169808,VALID,19.1333,VALID,31,VALID,1.27344,
2008-03-19, 03:23:01,VALID,914.66,VALID,0,VALID,100,VALID,0.0169808,VALID,19.1276,VALID,20,VALID,0.781055,
2008-03-19, 03:24:01,VALID,914.638,VALID,0,VALID,100,VALID,-0.0169808,VALID,19.0981,VALID,10,VALID,1.11365,
2008-03-19, 03:25:00,VALID,914.642,VALID,0,VALID,100,VALID,0,VALID,19.1114,VALID,30,VALID,1.31105,
2008-03-19, 03:26:01,VALID,914.638,VALID,0,VALID,100,VALID,0,VALID,19.1174,VALID,22,VALID,0.861779,
2008-03-19, 03:27:01,VALID,914.633,VALID,0,VALID,100,VALID,0,VALID,19.1406,VALID,30,VALID,1.1127,
2008-03-19, 03:28:01,VALID,914.649,VALID,0.2,VALID,100,VALID,0,VALID,19.1568,VALID,22,VALID,0.426639,
2008-03-19, 03:29:01,VALID,914.655,VALID,0,VALID,100,VALID,0,VALID,19.154,VALID,23,VALID,0,
2008-03-19, 03:30:01,VALID,914.651,VALID,0,VALID,100,VALID,-0.0169808,VALID,19.1633,VALID,26,VALID,0,
2008-03-19, 03:31:01,VALID,914.649,VALID,0,VALID,100,VALID,-0.0169808,VALID,19.157,VALID,33,VALID,0.0316406,
2008-03-19, 03:32:01,VALID,914.655,VALID,0,VALID,100,VALID,-0.0509425,VALID,19.1408,VALID,44,VALID,0.00990854,
2008-03-19, 03:33:01,VALID,914.664,VALID,0,VALID,100,VALID,0,VALID,19.1311,VALID,19,VALID,0.047061,
2008-03-19, 03:34:00,VALID,914.672,VALID,0,VALID,100,VALID,-0.0339617,VALID,19.1475,VALID,11,VALID,0.147529,
2008-03-19, 03:35:00,VALID,914.671,VALID,0,VALID,100,VALID,-0.0509425,VALID,19.1051,VALID,2,VALID,0.569803,
2008-03-19, 03:36:00,VALID,914.671,VALID,0,VALID,100,VALID,-0.0339617,VALID,19.1054,VALID,21,VALID,0.423209,
2008-03-19, 03:37:00,VALID,914.686,VALID,0,VALID,100,VALID,-0.0169808,VALID,19.1146,VALID,18,VALID,0.00319602,
2008-03-19, 03:38:00,VALID,914.673,VALID,0,VALID,100,VALID,0,VALID,19.1308,VALID,31,VALID,0.159598,
2008-03-19, 03:39:00,VALID,914.676,VALID,0,VALID,100,VALID,-0.0679233,VALID,19.0986,VALID,17,VALID,1.15065,
2008-03-19, 03:40:00,VALID,914.679,VALID,0,VALID,100,VALID,-0.0509425,VALID,19.1019,VALID,27,VALID,1.2561,
2008-03-19, 03:41:00,VALID,914.684,VALID,0,VALID,100,VALID,-0.0169808,VALID,19.0956,VALID,26,VALID,0.968369,
2008-03-19, 03:42:00,VALID,914.673,VALID,0,VALID,100,VALID,-0.0509425,VALID,19.1086,VALID,39,VALID,0.83418,
2008-03-19, 03:43:00,VALID,914.673,VALID,0,VALID,100,VALID,-0.0339617,VALID,19.1209,VALID,35,VALID,0.012173,
2008-03-19, 03:44:00,VALID,914.667,VALID,0.2,VALID,100,VALID,-0.0509425,VALID,19.1313,VALID,29,VALID,0,
2008-03-19, 03:45:00,VALID,914.671,VALID,0,VALID,100,VALID,-0.0679233,VALID,19.1475,VALID,27,VALID,0,
2008-03-19, 03:46:00,VALID,914.666,VALID,0,VALID,100,VALID,-0.0169808,VALID,19.1503,VALID,27,VALID,0,
2008-03-19, 03:47:00,VALID,914.664,VALID,0,VALID,100,VALID,-0.0339617,VALID,19.1603,VALID,27,VALID,0,
2008-03-19, 03:48:00,VALID,914.657,VALID,0,VALID,100,VALID,-0.0169808,VALID,19.1635,VALID,23,VALID,0.266226,
2008-03-19, 03:49:00,VALID,914.638,VALID,0,VALID,100,VALID,0,VALID,19.1665,VALID,26,VALID,0.78869,
2008-03-19, 03:50:00,VALID,914.63,VALID,0,VALID,100,VALID,-0.0169808,VALID,19.1732,VALID,45,VALID,0.212377,